Weather History for Belize, Belize

Change the Weather History Date:

Saturday, January 12, 2013

  Actual Average Record
Temperature  
Mean Temperature 80 °F -  
Max Temperature 85 °F - 87 °F (2005)
Min Temperature 75 °F - 59 °F (1999)
Cooling Degree Days 15    
Growing Degree Days 30 (Base 50)    
Moisture  
Dew Point 74 °F    
Average Humidity 80    
Maximum Humidity 94    
Minimum Humidity 68    
Precipitation  
Precipitation 0.03 in 0.15 in - ()
Sea Level Pressure  
Sea Level Pressure 29.95 in    
Wind  
Wind Speed 5 mph ()    
Max Wind Speed 12 mph    
Max Gust Speed -    
Visibility 8.0 miles    
Events Rain    
Averages and records for this station are not official NWS values.
T = Trace of Precipitation, MM = Missing Value Source: Averaged Metar Reports

Daily Weather History Graph

Daily Weather History Graph

Search for Another Location

Airport:

Trip Planner

Search our weather history database for the weather conditions in past years. The results will help you decide how hot, cold, wet, or windy it might be!

Date:

Astronomy

Jan. 12, 2013 Rise Set
Actual Time 6:26 AM CST 5:37 PM CST
Civil Twilight 6:03 AM CST 6:00 PM CST
Nautical Twilight 5:36 AM CST 6:27 PM CST
Astronomical Twilight 5:09 AM CST 6:53 PM CST
Moon 6:59 AM CST (1/12) 6:48 PM CST (1/12)
Length of Visible Light 11h 57m
Length of Day
11h 10m
New Moon, 1% of the Moon is Illuminated
Jan 12
New Moon
Jan 18
First Quarter
Jan 26
Full
Feb 3
Last Quarter
Feb 10
New

Hourly Weather History & Observations

Time (CST) Temp. Heat Index Dew Point Humidity Pressure Visibility Wind Dir Wind Speed Gust Speed Precip Events Conditions
3:00 AM 77 °F - 74 °F 86% 29.94 in 12 mi East 3.5 mph - -   Scattered Clouds
5:00 AM 77.0 °F - 73.4 °F 89% 29.92 in 6.2 mi East 3.5 mph - N/A   Mostly Cloudy
6:00 AM 76 °F - 73 °F 88% 29.96 in 12 mi Calm Calm - -   Partly Cloudy
6:00 AM 75.2 °F - 73.4 °F 94% 29.95 in 6.2 mi Calm Calm - N/A   Scattered Clouds
7:00 AM 77.0 °F - 73.4 °F 89% 29.95 in 6.2 mi East 4.6 mph - N/A   Scattered Clouds
8:00 AM 80.6 °F 86.2 °F 75.2 °F 84% 29.98 in 6.2 mi East 5.8 mph - N/A   Partly Cloudy
9:00 AM 82 °F - 73 °F 68% 29.99 in 12 mi East 11.5 mph - -   Partly Cloudy
9:00 AM 82.4 °F 88.2 °F 73.4 °F 74% 29.98 in 6.2 mi East 11.5 mph - N/A   Scattered Clouds
10:00 AM 80.6 °F 85.4 °F 73.4 °F 79% 30.00 in 6.2 mi ESE 6.9 mph - N/A   Mostly Cloudy
11:00 AM 80.6 °F 85.4 °F 73.4 °F 79% 29.98 in 6.2 mi East 5.8 mph - N/A   Mostly Cloudy
12:00 PM 83 °F - 75 °F 70% 29.96 in 12 mi East 8.1 mph - -   Mostly Cloudy
12:00 PM 82.4 °F 89.5 °F 75.2 °F 79% 29.95 in 6.2 mi East 8.1 mph - N/A   Mostly Cloudy
1:00 PM 86.0 °F 95.1 °F 75.2 °F 70% 29.93 in 6.2 mi East 11.5 mph - N/A   Scattered Clouds
2:00 PM 82.4 °F 89.5 °F 75.2 °F 79% 29.92 in 6.2 mi East 9.2 mph - N/A Rain Light Rain Showers
3:00 PM 82 °F - 74 °F 69% 29.91 in 12 mi East 9.2 mph - -  
3:00 PM 82.4 °F 88.2 °F 73.4 °F 74% 29.91 in 6.2 mi East 9.2 mph - N/A   Scattered Clouds
4:00 PM 82.4 °F 88.2 °F 73.4 °F 74% 29.91 in 6.2 mi East 10.4 mph - N/A   Partly Cloudy
5:00 PM 80.6 °F 85.4 °F 73.4 °F 79% 29.92 in 6.2 mi East 5.8 mph - N/A   Partly Cloudy
6:00 PM 79 °F - 74 °F 79% 29.93 in 9 mi ESE 4.6 mph - -   Mostly Cloudy
6:00 PM 78.8 °F - 73.4 °F 83% 29.92 in 6.2 mi ESE 4.6 mph - N/A   Scattered Clouds
9:00 PM 76 °F - 72 °F 85% 29.94 in 12 mi ESE 4.6 mph - -   Partly Cloudy